Wind_Speed
21 19 17 16 14 13 9 5 7 10 13 14 14 14 14 14 15 16 17 18 19 20 20 22 24 24 26 27 28 30 32 34 42 46 42 39 38 36 32 28 26 26 28
21 20 19 18 19 17 11 6 7 10 13 15 15 15 14 14 14 15 16 17 19 19 19 22 24 24 26 28 29 31 32 32 36 43 39 38 37 34 32 30 28 28 26
24 23 23 23 23 19 14 8 8 10 13 16 17 16 15 14 14 15 17 18 20 21 21 23 24 25 27 28 29 31 32 32 34 38 41 37 38 37 34 31 30 27 23
27 27 27 27 25 21 16 12 9 10 12 15 16 17 16 15 16 16 18 19 19 20 21 23 24 25 27 28 28 28 28 30 31 32 35 37 38 38 35 34 31 25 25
31 31 30 28 27 24 22 17 13 11 12 15 17 17 17 16 16 17 17 18 19 20 20 22 23 24 24 24 25 27 25 27 29 30 32 34 35 35 34 32 31 31 31
35 34 32 31 31 29 25 21 17 14 14 15 17 19 18 17 17 17 18 19 19 20 22 21 21 21 20 20 20 20 21 24 26 27 29 31 30 27 23 25 27 28 36
37 37 35 35 35 32 27 24 20 16 16 16 17 20 20 17 17 17 18 18 19 20 21 21 21 20 19 19 19 20 21 21 23 25 28 29 29 24 24 26 27 30 33
40 40 39 39 38 34 31 27 22 18 17 17 18 20 20 17 17 17 18 18 19 19 20 20 21 21 19 20 20 20 20 20 20 20 22 23 23 23 23 25 29 32 34
44 44 43 43 41 38 35 30 24 20 18 18 18 20 19 16 17 18 17 18 19 18 17 18 19 19 19 18 20 22 22 21 21 21 19 18 19 20 22 26 28 30 34
49 47 45 44 43 41 37 32 26 21 19 19 18 19 18 16 17 17 18 18 17 17 15 16 17 18 19 20 23 25 27 26 24 21 19 20 21 22 22 22 23 26 29
49 48 46 44 43 41 37 32 26 22 19 19 19 18 17 17 17 18 18 18 17 16 18 17 17 18 19 21 23 26 26 20 17 20 22 18 17 20 20 22 24 25 27
50 49 45 42 42 40 36 30 25 22 19 19 18 17 16 17 18 18 18 18 17 18 19 19 19 21 23 25 22 17 18 19 20 22 23 21 21 22 24 24 23 21 24
45 46 42 39 40 38 35 30 24 21 19 17 18 18 16 17 18 17 18 17 18 19 20 21 23 23 22 19 17 17 19 21 22 21 21 21 21 22 22 21 20 21 22
38 39 37 35 37 35 31 26 22 20 18 18 18 17 16 17 17 17 17 17 18 19 20 20 22 21 17 15 17 17 18 19 20 20 23 22 21 21 19 19 21 22 25
34 33 32 31 33 31 27 22 20 18 16 17 17 16 17 17 17 16 16 16 17 18 20 21 20 17 16 15 15 16 17 18 20 23 23 22 21 23 23 22 22 22 22
29 29 29 30 30 27 23 19 17 16 17 18 16 15 16 16 15 15 14 15 16 18 19 19 17 16 16 16 17 18 19 20 22 21 21 21 23 24 24 26 24 18 23
25 27 29 29 26 23 19 17 17 17 17 17 15 15 13 13 12 12 13 14 15 17 17 16 17 15 15 16 18 19 21 22 22 21 20 21 22 24 24 26 25 20 21
26 28 29 26 23 20 18 17 17 16 16 15 15 15 13 11 10 11 13 14 14 16 17 18 16 16 17 18 19 20 21 22 20 19 20 20 21 22 24 24 25 24 21
32 31 28 25 22 19 18 18 17 16 16 15 15 13 11 10 10 10 14 16 17 17 17 17 16 17 18 19 20 22 23 20 19 18 19 20 22 22 24 23 24 23 22
33 30 27 23 20 19 17 17 17 16 15 14 13 11 10 10 9 11 13 16 17 17 17 18 18 18 19 19 21 22 23 19 20 19 19 20 21 22 23 25 27 26 25
34 30 26 21 19 17 17 16 15 14 14 13 11 11 11 10 11 12 12 14 15 15 16 17 19 19 19 20 21 22 23 20 19 20 20 21 23 23 24 27 28 26 24
30 26 22 19 17 17 15 15 15 14 12 11 10 10 11 11 11 11 12 13 13 14 16 18 19 19 19 20 21 23 24 20 19 20 20 22 24 24 24 27 27 26 24
28 24 21 19 17 15 15 14 14 13 12 11 11 11 12 11 11 12 13 13 14 14 16 18 19 20 19 20 22 22 25 23 22 22 23 24 24 25 24 25 27 28 28
26 22 18 16 15 15 14 12 11 12 11 10 10 10 11 12 13 13 13 14 14 15 15 17 18 19 19 19 20 21 23 25 22 22 23 27 26 24 24 26 29 29 28
21 18 17 16 14 13 12 11 10 12 11 10 11 11 12 13 14 15 15 15 16 17 17 17 18 18 19 20 20 21 22 24 21 21 23 24 25 24 26 27 27 27 26
20 18 15 13 11 8 10 12 11 12 12 13 12 12 15 15 16 17 17 17 17 18 19 19 18 19 20 21 20 21 22 25 21 20 22 23 24 25 26 27 27 27 27
Wind_Direction
217 217 217 216 212 205 209 243 319 331 333 332 326 321 318 317 314 309 309 307 305 307 307 304 304 306 304 303 300 297 294 291 286 298 302 306 307 308 311 309 303 297 292
217 216 213 210 206 206 212 241 300 330 334 332 325 321 318 317 315 312 312 311 309 310 312 307 308 309 305 304 303 301 298 297 293 294 301 303 305 309 309 307 308 302 298
215 214 211 209 209 209 217 240 286 321 334 330 323 321 317 314 311 310 308 309 309 310 311 310 311 308 307 306 304 301 300 299 296 296 301 306 305 306 308 307 307 308 306
216 215 213 212 212 214 222 237 273 305 319 324 322 317 312 311 310 308 306 307 307 310 311 310 309 306 304 303 301 299 300 298 299 298 298 300 302 305 304 306 310 311 311
218 217 216 214 215 218 226 236 257 286 306 320 322 316 311 310 307 305 305 306 307 309 312 311 308 306 304 302 301 301 303 304 303 301 298 299 300 303 300 304 304 307 303
220 221 218 215 217 222 227 234 248 275 297 311 318 315 310 306 304 303 305 308 311 314 314 314 314 311 310 306 304 303 300 301 301 302 303 302 308 313 316 309 305 310 307
223 224 220 219 221 224 227 234 245 266 288 303 312 312 307 304 299 301 302 307 310 313 315 318 319 318 316 315 314 311 307 301 298 299 299 304 307 310 311 307 306 305 302
227 226 223 223 224 225 228 234 243 260 282 296 305 309 304 298 295 299 304 309 311 315 318 320 319 321 319 315 315 317 313 310 308 298 293 299 301 305 303 304 304 301 301
232 230 226 226 226 226 229 235 244 258 277 290 301 304 297 293 294 300 305 306 310 314 318 321 316 314 313 312 313 313 314 313 306 302 298 294 292 293 294 298 299 304 300
237 236 232 229 228 229 232 235 244 257 273 284 296 298 292 292 295 299 303 306 311 312 317 318 313 312 312 314 311 310 308 312 308 307 301 293 288 291 295 289 291 297 301
244 242 238 233 231 230 231 234 243 256 269 283 294 291 287 291 293 299 304 309 311 313 317 319 318 315 311 308 307 306 307 312 306 302 310 319 314 300 293 288 280 284 293
246 245 243 237 231 227 229 234 242 254 267 282 288 284 283 287 293 297 301 310 308 312 318 320 317 313 314 312 308 303 301 308 310 308 310 312 307 304 299 299 307 309 291
245 243 241 234 229 227 228 233 241 253 268 279 281 281 279 284 290 295 301 301 303 312 315 316 317 314 310 307 307 306 310 310 310 315 316 317 318 323 328 328 326 318 309
243 239 236 231 226 223 224 230 241 256 270 274 277 275 279 285 288 291 294 297 302 302 305 311 310 311 311 309 308 308 309 310 314 318 321 321 323 325 321 325 323 330 328
238 235 231 226 220 218 222 232 246 263 270 273 270 274 281 283 285 288 288 291 295 301 308 312 312 316 318 317 318 315 316 318 319 321 324 327 328 330 327 324 318 321 323
232 226 220 214 211 214 223 236 252 261 264 266 268 275 279 283 281 280 287 293 299 304 310 313 316 318 319 321 321 322 320 321 321 321 327 333 333 328 331 326 329 322 324
223 216 211 208 211 218 230 243 250 255 259 265 272 278 278 276 278 283 286 291 300 307 313 310 310 312 317 321 321 318 317 319 320 322 325 332 336 334 328 332 331 324 323
215 211 208 211 216 227 238 245 249 253 257 261 265 269 272 273 276 281 287 298 308 307 309 312 317 314 313 317 318 313 312 315 315 319 324 328 330 329 327 328 329 329 326
207 206 209 215 223 231 238 244 247 249 251 253 257 263 266 271 279 289 299 309 314 312 311 311 315 315 314 314 315 315 314 310 315 316 319 321 329 325 324 323 322 317 316
212 212 214 218 225 232 238 241 243 245 247 249 254 259 264 273 280 286 295 303 308 309 311 312 312 312 312 313 312 310 311 307 312 316 319 318 323 320 321 319 321 318 315
212 211 215 219 227 235 237 239 241 243 246 248 247 248 254 265 282 292 297 304 307 307 309 311 310 310 310 309 309 309 313 310 315 313 319 316 320 319 318 316 317 317 315
213 212 215 222 228 231 234 234 234 237 240 247 252 253 256 266 274 282 294 300 306 313 318 319 316 314 311 311 311 310 308 302 304 308 311 314 313 314 314 314 318 316 313
210 212 216 222 223 224 226 230 233 233 232 234 240 250 262 270 278 288 297 305 310 317 318 318 318 320 317 312 312 312 316 309 305 306 309 313 311 310 312 308 312 313 313
209 211 212 211 212 213 216 219 229 240 234 234 245 258 269 277 285 292 299 302 304 308 312 311 312 317 318 314 311 309 314 309 298 298 305 308 307 308 308 308 310 311 308
201 200 199 201 202 206 211 217 226 241 249 252 258 264 272 277 283 290 294 298 301 303 304 304 307 311 314 313 312 307 306 309 294 292 299 304 304 305 305 306 308 308 306
187 184 184 188 195 203 227 228 230 237 251 259 267 273 276 280 286 290 291 293 295 293 294 298 302 304 307 309 312 312 305 307 300 295 298 300 300 301 302 305 307 305 305
Height
1522 1525 1527 1530 1532 1533 1535 1535 1535 1533 1530 1528 1526 1524 1523 1521 1520 1518 1517 1514 1512 1510 1509 1507 1505 1505 1502 1500 1497 1496 1494 1492 1484 1477 1478 1476 1472 1471 1471 1469 1467 1465 1463
1517 1520 1522 1525 1527 1528 1530 1531 1530 1529 1527 1525 1523 1521 1519 1518 1516 1514 1512 1510 1508 1506 1504 1503 1500 1498 1495 1493 1491 1489 1486 1484 1479 1469 1470 1469 1467 1464 1462 1461 1460 1458 1456
1510 1513 1516 1518 1521 1523 1525 1526 1526 1524 1522 1521 1519 1517 1515 1513 1511 1509 1507 1506 1503 1502 1500 1498 1495 1493 1490 1487 1485 1481 1478 1476 1473 1469 1463 1463 1459 1457 1456 1454 1453 1451 1450
1504 1506 1509 1512 1515 1518 1520 1521 1521 1519 1518 1517 1515 1513 1511 1509 1506 1504 1503 1501 1499 1497 1495 1493 1490 1487 1483 1480 1477 1473 1471 1468 1467 1464 1459 1456 1454 1452 1451 1448 1445 1444 1443
1497 1499 1502 1506 1509 1512 1513 1514 1515 1515 1514 1513 1511 1508 1506 1504 1502 1500 1498 1496 1494 1491 1490 1487 1484 1482 1478 1475 1471 1467 1465 1464 1462 1458 1456 1453 1449 1447 1445 1443 1440 1437 1436
1489 1492 1496 1499 1502 1504 1506 1508 1510 1510 1509 1508 1506 1503 1501 1499 1497 1495 1493 1491 1488 1486 1484 1481 1479 1476 1473 1470 1467 1464 1461 1456 1456 1456 1452 1447 1444 1443 1441 1439 1437 1433 1428
1481 1484 1488 1491 1494 1497 1500 1502 1504 1504 1503 1502 1500 1498 1495 1494 1492 1490 1488 1486 1484 1481 1478 1475 1472 1469 1466 1463 1461 1460 1458 1456 1453 1448 1445 1444 1440 1438 1435 1433 1431 1428 1424
1473 1475 1480 1483 1486 1491 1494 1495 1497 1498 1497 1496 1494 1492 1490 1489 1486 1484 1483 1481 1479 1477 1474 1470 1467 1464 1462 1458 1456 1455 1454 1449 1447 1444 1440 1438 1437 1435 1432 1428 1424 1419 1415
1464 1466 1470 1474 1478 1483 1485 1488 1490 1491 1490 1489 1487 1485 1484 1483 1481 1479 1478 1475 1473 1472 1468 1465 1462 1459 1457 1454 1452 1448 1446 1444 1441 1437 1434 1430 1429 1427 1425 1421 1417 1414 1407
1453 1456 1461 1465 1470 1474 1478 1481 1483 1484 1484 1482 1480 1480 1478 1477 1476 1474 1472 1470 1469 1467 1464 1460 1457 1455 1452 1450 1447 1443 1438 1435 1433 1430 1427 1425 1423 1421 1419 1416 1412 1407 1403
1447 1451 1454 1459 1463 1467 1471 1473 1476 1477 1476 1475 1474 1473 1472 1471 1470 1468 1467 1464 1462 1460 1457 1456 1454 1451 1447 1443 1440 1438 1434 1429 1428 1426 1422 1420 1417 1415 1411 1409 1406 1401 1396
1438 1442 1447 1452 1456 1460 1464 1467 1469 1469 1469 1468 1467 1467 1466 1464 1463 1462 1461 1460 1458 1455 1453 1451 1448 1444 1441 1439 1434 1430 1428 1427 1425 1420 1417 1413 1411 1408 1404 1400 1397 1393 1390
1431 1435 1440 1444 1448 1453 1457 1460 1462 1462 1462 1461 1460 1460 1460 1458 1457 1457 1456 1454 1453 1451 1448 1444 1442 1439 1436 1432 1430 1428 1426 1423 1420 1416 1411 1407 1403 1400 1397 1394 1390 1386 1382
1423 1428 1432 1436 1441 1445 1450 1453 1454 1455 1454 1454 1453 1453 1453 1453 1452 1451 1451 1450 1448 1446 1443 1439 1436 1432 1428 1426 1425 1425 1420 1418 1415 1412 1408 1405 1400 1396 1392 1388 1383 1378 1375
1417 1421 1425 1429 1434 1439 1443 1446 1447 1447 1447 1447 1446 1447 1446 1446 1446 1446 1445 1444 1442 1440 1437 1435 1432 1430 1426 1423 1421 1420 1419 1415 1414 1410 1406 1401 1395 1393 1390 1384 1379 1374 1371
1412 1415 1420 1424 1428 1433 1436 1438 1440 1440 1440 1440 1440 1440 1439 1439 1439 1439 1439 1438 1436 1433 1431 1430 1426 1423 1422 1420 1417 1416 1415 1412 1409 1406 1402 1398 1394 1391 1386 1382 1376 1371 1368
1407 1412 1416 1420 1424 1427 1430 1431 1432 1432 1433 1434 1434 1434 1434 1434 1434 1433 1432 1432 1430 1429 1425 1422 1420 1415 1414 1413 1412 1410 1410 1407 1405 1402 1399 1394 1391 1389 1385 1379 1375 1370 1367
1402 1407 1411 1415 1418 1421 1422 1424 1425 1425 1426 1427 1427 1428 1427 1427 1427 1428 1428 1425 1424 1421 1419 1419 1415 1414 1411 1408 1408 1407 1404 1403 1402 1396 1395 1391 1387 1384 1381 1376 1372 1368 1365
1396 1400 1404 1408 1410 1412 1414 1416 1416 1417 1419 1420 1421 1421 1422 1422 1423 1423 1424 1422 1420 1419 1416 1414 1410 1408 1407 1403 1401 1402 1398 1396 1393 1390 1389 1385 1382 1380 1376 1374 1370 1366 1362
1390 1394 1397 1400 1402 1405 1407 1408 1410 1411 1412 1414 1415 1417 1418 1418 1418 1418 1416 1415 1413 1411 1411 1410 1405 1402 1401 1399 1396 1395 1391 1390 1389 1386 1383 1380 1377 1376 1372 1369 1366 1361 1358
1384 1387 1391 1393 1396 1398 1400 1403 1404 1406 1408 1408 1408 1408 1409 1410 1412 1412 1408 1409 1407 1404 1403 1401 1400 1397 1396 1393 1392 1388 1385 1381 1381 1382 1378 1376 1372 1370 1367 1364 1361 1357 1354
1381 1383 1386 1388 1390 1392 1395 1397 1398 1400 1401 1404 1406 1406 1406 1406 1404 1403 1403 1402 1400 1400 1399 1397 1395 1393 1392 1389 1387 1384 1379 1377 1375 1374 1371 1368 1366 1365 1361 1358 1356 1353 1350
1376 1378 1380 1382 1384 1387 1389 1392 1394 1395 1395 1396 1398 1401 1403 1401 1400 1399 1399 1398 1396 1392 1393 1392 1390 1387 1386 1383 1384 1380 1376 1374 1373 1372 1367 1364 1360 1358 1356 1353 1350 1348 1345
1369 1372 1375 1378 1380 1382 1384 1386 1388 1394 1393 1392 1394 1394 1395 1396 1396 1394 1391 1393 1390 1388 1386 1385 1384 1380 1380 1377 1375 1374 1370 1367 1367 1364 1362 1360 1356 1352 1349 1347 1344 1342 1339
1364 1367 1370 1373 1376 1378 1379 1382 1384 1390 1392 1388 1390 1388 1389 1388 1389 1388 1386 1384 1384 1382 1380 1379 1378 1375 1372 1371 1367 1366 1362 1359 1356 1355 1354 1351 1350 1347 1344 1340 1338 1336 1333
1359 1361 1366 1370 1374 1375 1378 1380 1381 1383 1385 1385 1384 1382 1384 1382 1380 1381 1379 1377 1375 1374 1374 1373 1371 1368 1367 1366 1362 1359 1356 1354 1351 1347 1347 1344 1343 1341 1338 1334 1331 1329 1326